Location: Dumpton Point
(51.3500°N, 1.4433°E)
Time: 16:25:47
(UTC+00:00)

Transit 4A - Visible Passes

Search period start: 24 September 2022 00:00
Search period end: 04 October 2022 00:00
Orbit: 869 x 975 km, 66.8° (Epoch: 23 September)

Date Brightness Start Highest point End Pass type
(mag) Time Alt. Az. Time Alt. Az. Time Alt. Az.
24 Sep 9.3 00:38:25 33° NE 00:38:25 33° NE 00:41:35 10° NE visible
24 Sep 9.0 02:21:54 31° NW 02:22:32 32° NNW 02:27:51 10° NNE visible
24 Sep 9.8 04:06:40 10° NW 04:10:47 18° N 04:14:51 10° NE visible
25 Sep 9.2 00:47:25 36° NNE 00:47:25 36° NNE 00:50:51 10° NE visible
25 Sep 9.3 02:30:55 25° NW 02:32:06 27° NNW 02:37:07 10° NNE visible
25 Sep 9.9 04:16:30 10° NW 04:20:32 18° N 04:24:32 10° NE visible
25 Sep 10.3 23:12:55 12° NE 23:12:55 12° NE 23:13:26 10° NE visible
26 Sep 9.2 00:56:25 36° NNE 00:56:25 36° NNE 01:00:05 10° NE visible
26 Sep 9.5 02:39:55 20° NW 02:41:44 23° NNW 02:46:27 10° NNE visible
26 Sep 9.9 04:26:11 10° NW 04:30:17 18° N 04:34:20 10° NE visible
26 Sep 10.2 23:21:55 15° NE 23:21:55 15° NE 23:22:53 10° NE visible
27 Sep 9.2 01:05:25 35° N 01:05:25 35° N 01:09:18 10° NNE visible
27 Sep 9.7 02:48:56 16° NW 02:51:26 21° NNW 02:55:49 10° NNE visible
27 Sep 9.9 04:35:45 10° NNW 04:40:02 20° NNE 04:44:13 10° ENE visible
27 Sep 10.1 23:30:55 17° NE 23:30:55 17° NE 23:32:13 10° NE visible
28 Sep 9.3 01:14:25 32° N 01:14:25 32° N 01:18:31 10° NNE visible
28 Sep 9.9 02:57:55 13° NW 03:01:09 19° N 03:05:18 10° NE visible
28 Sep 9.8 04:45:12 10° NNW 04:49:44 22° NNE 04:54:10 10° ENE visible
28 Sep 10.0 23:39:54 19° NE 23:39:54 19° NE 23:41:31 10° NE visible
29 Sep 9.4 01:23:24 29° NNW 01:23:24 29° NNW 01:27:47 10° NNE visible
29 Sep 10.0 03:06:54 10° NW 03:10:53 18° N 03:14:53 10° NE visible
29 Sep 9.7 04:54:34 10° NNW 04:59:23 24° NNE 05:04:07 10° ENE visible
29 Sep 9.9 23:48:53 21° NNE 23:48:53 21° NNE 23:50:45 10° NE visible
30 Sep 9.5 01:32:23 25° NNW 01:32:23 25° NNW 01:37:03 10° NNE visible
30 Sep 10.0 03:16:36 10° NW 03:20:38 18° N 03:24:37 10° NE visible
30 Sep 9.5 05:03:52 10° NNW 05:08:59 29° NNE 05:14:01 10° E visible
30 Sep 9.9 23:57:52 22° NNE 23:57:52 22° NNE 23:59:59 10° NNE visible
01 Oct 9.7 01:41:22 22° NNW 01:41:49 22° NNW 01:46:23 10° NNE visible
01 Oct 10.0 03:26:15 10° NW 03:30:23 19° N 03:34:27 10° NE visible
01 Oct 9.3 05:13:08 10° NNW 05:18:32 35° NE 05:23:50 10° E visible
02 Oct 9.9 00:06:51 23° NNE 00:06:51 23° NNE 00:09:12 10° NNE visible
02 Oct 9.8 01:50:21 19° NNW 01:51:30 20° NNW 01:55:47 10° NNE visible
02 Oct 10.0 03:35:46 10° NNW 03:40:06 20° NNE 03:44:21 10° ENE visible
02 Oct 9.0 05:22:23 10° NNW 05:28:01 43° NE 05:33:33 10° ESE visible
03 Oct 9.9 00:15:50 23° NNE 00:15:50 23° NNE 00:18:25 10° NNE visible
03 Oct 9.9 01:59:20 16° NNW 02:01:14 19° N 02:05:18 10° NE visible
03 Oct 9.9 03:45:11 10° NNW 03:49:47 22° NNE 03:54:19 10° ENE visible
03 Oct 10.5 22:41:20 10° NE 22:41:20 10° NE 22:41:25 10° NE visible
